Weather History for Vernon, TX

Change the Weather History Date:

Sunday, August 12, 2012

  Actual Average (KLTS) Record (KLTS)
Temperature  
Mean Temperature 92 °F -  
Max Temperature 104 °F 93 °F 105 °F (1999)
Min Temperature 81 °F 70 °F 62 °F (2014)
Cooling Degree Days 28    
Growing Degree Days 42 (Base 50)    
Moisture  
Dew Point 48 °F    
Average Humidity 23    
Maximum Humidity 32    
Minimum Humidity 15    
Precipitation  
Precipitation 0.00 in - - ()
Sea Level Pressure  
Sea Level Pressure 29.89 in    
Wind  
Wind Speed - (North)    
Max Wind Speed -    
Max Gust Speed -    
Visibility 10 miles    
Events      
Averages and records for this station are not official NWS values.
T = Trace of Precipitation, MM = Missing Value Source: NWS Daily Summary

Daily Weather History Graph

Daily Weather History Graph

Search for Another Location

Airport:

Trip Planner

Search our weather history database for the weather conditions in past years. The results will help you decide how hot, cold, wet, or windy it might be!

Date:

Astronomy

Aug. 12, 2012 Rise Set
Actual Time 6:56 AM CDT 8:27 PM CDT
Civil Twilight 6:29 AM CDT 8:53 PM CDT
Nautical Twilight 5:57 AM CDT 9:25 PM CDT
Astronomical Twilight 5:24 AM CDT 9:59 PM CDT
Moon 2:16 AM CDT (8/12) 4:48 PM CDT (8/12)
Length of Visible Light 14h 23m
Length of Day
13h 30m
Waning Crescent, 24% of the Moon is Illuminated
Aug 12
Waning Crescent
Aug 17
New
Aug 24
First Quarter
Aug 31
Full
Sep 8
Last Quarter

Hourly Weather History & Observations

Time (CDT) Temp. Heat Index Dew Point Humidity Pressure Visibility Wind Dir Wind Speed Gust Speed Precip Events Conditions
12:15 AM 86.4 °F - 46.8 °F 25% 29.88 in 10.0 mi North - - N/A   Clear
12:35 AM 86.0 °F - 46.6 °F 25% 29.89 in 10.0 mi North - - N/A   Clear
12:55 AM 85.8 °F - 46.4 °F 25% 29.89 in 10.0 mi North - - N/A   Clear
1:15 AM 85.5 °F - 46.6 °F 26% 29.88 in 10.0 mi North - - N/A   Clear
1:35 AM 85.3 °F - 46.6 °F 26% 29.88 in 10.0 mi North - - N/A   Clear
1:55 AM 84.9 °F - 46.6 °F 26% 29.88 in 10.0 mi North - - N/A   Clear
2:15 AM 84.4 °F - 46.6 °F 27% 29.88 in 10.0 mi North - - N/A   Clear
2:35 AM 84.2 °F - 46.4 °F 27% 29.88 in 10.0 mi North - - N/A   Clear
2:55 AM 83.8 °F - 46.4 °F 27% 29.89 in 10.0 mi North - - N/A   Clear
3:15 AM 83.3 °F - 46.6 °F 28% 29.89 in 10.0 mi North - - N/A   Clear
3:35 AM 82.8 °F - 46.9 °F 28% 29.89 in 10.0 mi North - - N/A   Clear
3:55 AM 82.0 °F - 47.7 °F 30% 29.90 in 10.0 mi North - - N/A   Clear
4:15 AM 81.5 °F - 47.7 °F 31% 29.90 in 10.0 mi North - - N/A   Clear
4:35 AM 81.7 °F - 46.8 °F 29% 29.89 in 10.0 mi North - - N/A   Clear
4:55 AM 81.7 °F - 46.4 °F 29% 29.90 in 10.0 mi North - - N/A   Clear
5:15 AM 81.5 °F - 46.2 °F 29% 29.90 in 10.0 mi North - - N/A   Clear
5:35 AM 81.5 °F - 46.0 °F 29% 29.90 in 10.0 mi North - - N/A   Clear
5:55 AM 81.5 °F - 46.2 °F 29% 29.91 in 10.0 mi North - - N/A   Clear
6:15 AM 81.7 °F - 46.4 °F 29% 29.90 in 10.0 mi North - - N/A   Clear
6:35 AM 82.0 °F - 46.4 °F 29% 29.89 in 10.0 mi North - - N/A   Clear
7:15 AM 81.3 °F - 47.3 °F 30% 29.90 in 10.0 mi North - - N/A   Scattered Clouds
7:35 AM 81.1 °F - 47.7 °F 31% 29.89 in 10.0 mi North - - N/A   Clear
7:55 AM 81.7 °F - 48.0 °F 31% 29.90 in 10.0 mi North - - N/A   Clear
8:15 AM 82.2 °F - 48.9 °F 31% 29.92 in 10.0 mi North - - N/A   Clear
8:35 AM 82.6 °F - 49.5 °F 31% 29.92 in 10.0 mi North - - N/A   Clear
8:55 AM 82.6 °F - 49.6 °F 32% 29.91 in 10.0 mi North - - N/A   Scattered Clouds
9:15 AM 83.8 °F - 50.2 °F 31% 29.92 in 10.0 mi North - - N/A   Clear
9:35 AM 85.1 °F - 50.7 °F 30% 29.91 in 10.0 mi North - - N/A   Clear
9:55 AM 88.2 °F - 52.2 °F 29% 29.91 in 10.0 mi North - - N/A   Clear
10:15 AM 90.7 °F 88.3 °F 53.4 °F 28% 29.89 in 10.0 mi North - - N/A   Clear
10:35 AM 94.6 °F 92.3 °F 53.6 °F 25% 29.88 in 10.0 mi North - - N/A   Clear
10:55 AM 97.0 °F 94.6 °F 53.6 °F 23% 29.88 in 10.0 mi North - - N/A   Clear
11:15 AM 99.5 °F - 52.9 °F 21% 29.88 in 10.0 mi North - - N/A   Clear
11:35 AM 101.8 °F - 51.4 °F 18% 29.88 in 10.0 mi North - - N/A   Clear
11:55 AM 103.1 °F - 49.8 °F 17% 29.88 in 10.0 mi North - - N/A   Clear
12:15 PM 103.6 °F - 48.9 °F 16% 29.88 in 10.0 mi North - - N/A   Clear
12:35 PM 102.2 °F - 48.9 °F 17% 29.88 in 10.0 mi North - - N/A   Clear
12:55 PM 103.3 °F - 49.8 °F 17% 29.88 in 10.0 mi North - - N/A   Clear
1:35 PM 104.5 °F - 49.6 °F 16% 29.88 in 10.0 mi North - - N/A   Clear
1:55 PM 103.3 °F - 48.9 °F 16% 29.89 in 10.0 mi North - - N/A   Clear
2:15 PM 100.9 °F - 49.1 °F 17% 29.89 in 10.0 mi North - - N/A   Clear
2:35 PM 101.1 °F - 49.6 °F 18% 29.89 in 10.0 mi North - - N/A   Clear
2:55 PM 100.6 °F - 49.8 °F 18% 29.90 in 10.0 mi North - - N/A   Clear
3:15 PM 99.9 °F - 50.7 °F 19% 29.89 in 10.0 mi North - - N/A   Clear
3:35 PM 99.9 °F - 50.9 °F 19% 29.89 in 10.0 mi North - - N/A   Clear
3:55 PM 99.7 °F - 51.1 °F 19% 29.88 in 10.0 mi North - - N/A   Clear
4:15 PM 100.2 °F - 50.9 °F 19% 29.88 in 10.0 mi North - - N/A   Clear
4:55 PM 100.2 °F - 50.4 °F 19% 29.88 in 10.0 mi North - - N/A   Clear
5:15 PM 99.9 °F - 50.4 °F 19% 29.86 in 10.0 mi North - - N/A   Mostly Cloudy
5:35 PM 101.8 °F - 51.1 °F 18% 29.86 in 10.0 mi North - - N/A   Scattered Clouds
5:55 PM 103.3 °F - 50.7 °F 17% 29.85 in 10.0 mi North - - N/A   Clear
6:15 PM 104.0 °F - 49.8 °F 16% 29.85 in 10.0 mi North - - N/A   Clear
6:35 PM 104.0 °F - 50.0 °F 16% 29.85 in 10.0 mi North - - N/A   Clear
6:55 PM 103.3 °F - 50.5 °F 17% 29.85 in 10.0 mi North - - N/A   Clear
7:15 PM 103.1 °F - 50.9 °F 17% 29.85 in 10.0 mi North - - N/A   Clear
7:35 PM 102.6 °F - 50.9 °F 18% 29.86 in 10.0 mi North - - N/A   Clear
7:55 PM 102.0 °F - 48.7 °F 17% 29.87 in 10.0 mi North - - N/A   Clear
8:15 PM 100.8 °F - 44.8 °F 15% 29.88 in 10.0 mi North - - N/A   Clear
8:35 PM 97.9 °F - 44.6 °F 16% 29.88 in 10.0 mi North - - N/A   Clear
8:55 PM 95.2 °F - 45.7 °F 18% 29.89 in 10.0 mi North - - N/A   Clear
9:15 PM 94.8 °F - 46.2 °F 19% 29.90 in 10.0 mi North - - N/A   Clear
9:55 PM 93.6 °F - 45.0 °F 19% 29.92 in 10.0 mi North - - N/A   Clear
10:15 PM 91.9 °F - 45.1 °F 20% 29.93 in 10.0 mi North - - N/A   Clear
10:35 PM 90.3 °F - 45.5 °F 21% 29.94 in 10.0 mi North - - N/A   Clear
10:55 PM 89.2 °F - 45.1 °F 22% 29.95 in 10.0 mi North - - N/A   Clear
11:15 PM 87.6 °F - 45.1 °F 23% 29.97 in 10.0 mi North - - N/A   Clear
11:55 PM 88.0 °F - 46.9 °F 24% 29.98 in 10.0 mi North - - N/A   Clear